#timestamp,LO_Frequency,Hit,StdDev 
1587002415.5,286046996.9,P
1587002435.3,286046997.9,N
1587002455.2,286046995.8,P
1587002475.9,286046997.0,N
1587002495.7,286046998.9,N
1587002515.6,286046998.9,N
1587002535.4,286046999.6,N
1587002555.3,286046999.5,N
1587002575.1,286047002.4,N
1587002576.0,286047002.4,N
1587002595.8,286046999.7,N
1587002615.7,286047002.8,N
1587002635.5,286047001.4,N
1587002655.3,286047002.3,N
1587002675.2,286047000.1,N
1587002695.0,286047000.3,N
1587002695.9,286047000.3,N
1587002715.8,286047002.4,N
1587002735.6,286047000.1,N
1587002755.4,286047002.2,N
1587002775.3,286047002.4,N
1587002795.1,286047001.5,N
1587002815.9,286047000.6,N
1587002835.7,286047001.9,N
1587002855.5,286047002.4,N
1587002875.4,286047002.7,N
1587002895.2,286046999.7,N
1587002915.0,286047002.8,N
1587002915.9,286047002.8,N
1587002935.8,286046999.9,N
1587002955.6,286047002.4,N
1587002975.5,286046999.8,N
1587002995.3,286047003.9,N
1587003015.1,286047002.4,N
1587003035.9,286046999.7,N
1587003055.7,286046999.8,N
1587003075.6,286046999.8,N
1587003095.4,286047000.9,N
1587003115.2,286047000.0,N
1587003135.1,286046999.7,N
1587003136.0,286046999.7,N
1587003155.8,286047000.4,N
1587003175.7,286047004.4,Y
1587003195.5,286047002.3,P
1587003215.3,286047001.9,P
1587003235.2,286047002.1,P
1587003255.0,286047004.1,Y
1587003255.9,286047004.1,P
1587003275.7,286047004.0,P
1587003295.6,286047004.4,P
1587003315.4,286047001.5,N
1587003335.3,286047003.5,N
1587003355.1,286047001.6,N
1587003375.8,286047002.7,N
1587003395.7,286046999.9,N
1587003415.5,286047002.3,N
1587003435.4,286047004.1,Y
1587003455.2,286046999.2,P
1587003475.0,286047001.2,N
1587003475.9,286047001.2,N
1587003495.8,286047000.7,N
1587003515.6,286047000.0,N
1587003535.4,286046998.7,N
1587003555.3,286046999.5,N
1587003575.1,286046999.0,N
1587003595.9,286046998.6,N
1587003615.7,286047000.2,N
1587003635.5,286046998.8,N
1587003655.4,286046999.4,N
1587003675.2,286046996.5,Y
1587003695.1,286046999.3,P
1587003696.0,286046999.3,N
1587003715.8,286046996.8,P
1587003735.6,286046996.5,N
1587003755.5,286046997.1,N
1587003775.3,286046996.6,N
1587003795.1,286046999.1,N
1587003815.9,286046998.4,N
1587003835.7,286046998.3,N
1587003855.6,286046996.5,N
1587003875.4,286046997.2,N
1587003895.2,286047001.0,N
1587003915.1,286047000.5,N
1587003916.0,286047000.5,N
1587003935.8,286047000.8,N
1587003955.7,286046998.7,N
1587003975.5,286046998.1,N
1587003995.3,286046999.1,N
1587004015.2,286046999.4,N
1587004035.0,286047000.7,N
1587004035.9,286047000.7,N
1587004055.8,286046999.8,N
1587004075.6,286047001.7,N
1587004095.4,286047002.4,N
1587004115.3,286047002.4,N
1587004135.1,286047000.2,N
1587004155.8,286047001.6,N
1587004175.7,286047000.1,N
1587004195.5,286046998.3,N
1587004215.4,286046998.5,N
1587004235.2,286046999.0,N
1587004255.0,286046999.5,N
1587004255.9,286046999.5,N
1587004275.8,286046996.9,N
1587004295.6,286046998.2,N
1587004315.5,286047001.2,N
1587004335.3,286046996.6,N
1587004355.1,286046999.0,N
1587004375.9,286046999.5,N
1587004395.7,286046999.4,N
1587004415.6,286046997.8,N
1587004435.4,286046995.4,Y
1587004455.2,286046996.6,P
1587004475.1,286046999.5,N
1587004476.0,286046999.5,N
1587004495.8,286046999.3,N
1587004515.7,286046999.4,N
1587004535.5,286046998.4,N
1587004555.3,286046997.2,N
1587004575.2,286046998.8,N
1587004595.0,286046997.9,N
1587004595.9,286046997.9,N
1587004615.8,286046997.2,N
1587004635.6,286046998.2,N
1587004655.4,286046998.2,N
1587004675.3,286046996.6,Y
1587004695.1,286046997.3,P
1587004715.8,286046999.2,N
1587004735.7,286047000.3,N
1587004755.5,286047000.5,N
1587004775.4,286047002.7,N
1587004795.2,286047000.8,N
1587004815.0,286046998.9,N
1587004815.9,286046998.9,N
1587004835.8,286046998.1,N
1587004855.6,286046997.1,N
1587004875.5,286046997.0,N
1587004895.3,286046996.5,N
1587004915.1,286047000.8,N
1587004935.9,286046998.2,N
1587004955.7,286046998.6,N
1587004975.6,286046999.6,N
1587004995.4,286046994.9,Y
1587005015.2,286046997.4,P
1587005035.1,286046996.5,P
1587005036.0,286046996.5,P
1587005055.8,286047000.3,N
1587005075.7,286047000.7,N
1587005095.5,286046998.9,N
1587005115.3,286046997.2,N
1587005135.2,286046996.5,N
1587005155.0,286046997.5,N
1587005155.9,286046997.5,N
1587005175.7,286046996.5,N
1587005195.6,286046999.2,N
1587005215.4,286046997.2,N
1587005235.3,286046998.0,N
1587005255.1,286046997.3,N
1587005275.9,286046997.5,N
1587005295.7,286046997.8,N
1587005315.5,286046997.7,N
1587005335.4,286046996.8,N
1587005355.2,286046997.4,N
1587005375.0,286046996.0,Y
1587005375.9,286046996.0,P
1587005395.8,286046995.4,P
1587005415.6,286046995.1,P
1587005435.5,286046997.0,N
1587005455.3,286046997.3,N
1587005475.1,286046997.5,N
1587005495.9,286046997.7,N
1587005515.7,286046997.3,N
1587005535.6,286046996.7,Y
1587005555.4,286047000.8,P
1587005575.2,286047000.6,N
1587005595.1,286046998.7,N
1587005596.0,286046998.7,N
1587005615.8,286046999.3,N
1587005635.6,286046998.6,N
1587005655.5,286047000.0,N
1587005675.3,286046998.2,N
1587005695.2,286046999.2,N
1587005715.9,286046997.0,N
1587005735.7,286046996.9,N
1587005755.6,286046996.9,N
1587005775.4,286046999.2,N
1587005795.3,286046998.9,N
1587005815.1,286046996.5,N
1587005835.8,286046997.7,N
1587005855.7,286046997.6,N
1587005875.5,286046997.9,N
1587005895.4,286046997.0,N
1587005915.2,286046996.7,N
1587005935.0,286046997.8,N
1587005935.9,286046997.8,N
1587005955.8,286046997.6,N
1587005975.6,286046997.4,N
1587005995.4,286046997.6,N
